GFSFLT1_con_3kmhel_048.txt.gz
Helicity
30 13 -51 -45 -55 -81 -80 -119 -101 -118 -72 -36 -26 26 27 -27 11 -19 -19 -28 -10 15 13 72 128 98 106 122 130 118 139 118
24 59 32 6 28 2 -12 -55 -101 -132 -133 -64 -40 -31 -26 -47 -48 -33 33 37 50 55 32 132 124 94 116 143 152 189 142 201
76 133 80 49 79 16 13 -5 -31 -51 -49 -49 -49 -16 -29 -46 -58 -11 74 46 94 77 43 147 128 96 153 197 213 196 138 184
122 124 64 104 118 50 7 50 30 -7 -10 -43 -50 -10 -18 -37 -18 54 123 112 73 68 60 134 165 110 196 246 212 161 162 228
109 105 112 100 118 107 54 83 55 35 22 -28 -19 14 5 28 13 84 96 75 69 49 103 129 200 197 223 279 212 160 164 238
203 106 78 176 118 189 106 104 90 58 8 -7 -23 49 13 13 99 108 232 165 108 77 120 174 217 267 244 239 214 183 198 285
222 163 81 80 94 149 146 90 107 112 138 25 -14 -3 44 5 122 199 229 146 127 158 125 192 252 277 208 241 283 306 348 302
191 186 160 118 117 136 100 100 66 61 162 114 26 73 62 43 15 234 303 210 129 115 140 192 280 271 261 290 380 409 321 268
192 194 223 162 149 172 177 157 113 82 96 178 199 122 179 112 87 166 283 240 127 115 260 306 312 319 304 339 407 397 280 215
137 164 193 236 226 212 246 200 158 111 181 276 350 229 153 78 170 157 201 229 256 351 349 330 306 311 318 364 451 382 214 171
23 123 156 202 264 289 316 304 190 167 155 334 376 324 172 140 131 181 199 215 245 312 290 292 300 318 409 410 397 315 224 322
46 59 64 129 172 278 311 331 255 249 256 412 403 352 283 191 201 186 196 231 279 287 272 261 293 340 425 425 295 292 381 453
46 28 59 109 181 142 225 234 250 276 320 329 218 167 219 215 199 194 214 264 268 254 226 245 302 424 468 392 321 334 370 509
58 86 68 73 81 121 236 288 268 193 195 275 156 177 275 297 294 268 263 278 260 282 311 345 353 406 397 328 303 273 540 331
75 117 100 109 109 125 183 191 152 170 190 251 361 363 293 264 284 295 319 340 377 381 337 324 363 385 384 236 324 281 335 258
108 82 170 238 212 231 221 292 274 316 302 347 356 266 234 230 262 287 298 306 327 329 337 348 350 318 259 243 270 266 227 198
134 129 174 316 201 259 321 275 291 346 391 417 349 319 270 219 230 200 230 256 261 276 280 295 307 280 268 272 239 196 212 209
180 86 283 383 332 368 338 327 319 400 409 393 398 403 383 360 321 313 327 293 289 282 266 250 225 204 190 155 171 176 145 125
218 255 294 344 359 333 337 311 342 317 337 336 299 266 251 278 281 313 299 291 260 234 212 194 202 205 167 144 139 124 110 105

GFSFLT1_con_3kmhel_051.txt.gz
Helicity
51 2 58 119 53 15 36 25 61 25 18 -9 -13 -10 19 -139 -109 -84 -63 -45 -42 -41 -29 -1 119 145 134 138 119 102 116 129
70 19 -11 -49 -6 43 50 52 75 72 5 -77 -178 -173 -109 -117 -105 -80 -73 -50 -49 -24 -39 113 113 127 123 137 147 153 169 178
99 59 6 -44 -27 -8 -6 -36 -58 -61 -103 -160 -139 -111 -124 -73 -63 -73 -32 17 13 39 49 72 135 126 127 163 198 200 182 206
89 115 49 21 35 27 19 -25 -138 -221 -230 -158 -121 -91 -103 -65 -57 -76 -44 57 117 101 66 105 150 152 122 194 255 241 214 191
152 107 97 72 19 30 44 28 -22 -83 -98 -90 -51 -47 -34 -18 -35 -55 21 126 117 115 62 95 183 186 132 217 264 286 260 249
229 198 126 49 51 60 54 64 43 14 -7 0 -16 -25 -28 56 38 21 89 128 150 144 134 110 141 210 218 217 265 269 254 321
244 185 154 97 72 66 88 85 95 57 86 36 -6 -7 13 54 62 77 135 100 123 131 123 99 200 221 244 239 233 273 312 319
248 226 168 160 143 127 104 118 110 102 74 49 57 34 3 59 102 154 255 231 209 205 183 92 162 217 257 284 329 416 436 373
287 306 262 225 214 184 200 176 169 151 151 86 67 58 159 183 138 132 215 243 263 145 132 85 177 263 262 323 411 451 417 417
311 273 320 304 295 265 348 279 226 198 194 223 144 40 98 161 206 193 223 229 222 199 175 169 216 273 314 379 407 417 405 379
285 310 320 315 360 353 386 372 325 278 324 329 251 144 248 227 254 261 189 151 188 196 204 239 288 302 340 373 367 406 357 381
94 140 237 283 333 314 321 275 196 140 226 254 365 363 385 318 255 195 188 159 179 189 215 268 294 319 329 363 370 361 310 424
101 61 122 124 230 423 426 416 493 79 160 260 294 383 281 256 402 287 240 223 173 203 248 283 288 319 351 379 360 379 429 368
117 82 40 60 146 159 308 397 336 63 60 171 291 318 239 302 282 276 251 274 218 261 278 277 307 353 376 365 336 326 419 266
149 152 119 74 87 90 167 216 183 195 88 304 338 321 361 374 317 249 232 249 305 311 289 305 337 340 362 371 336 226 211 172
131 167 200 251 223 214 301 310 338 331 365 413 357 344 372 369 338 311 312 331 351 364 379 393 366 347 335 305 245 275 195 227
157 177 271 408 436 368 341 348 371 378 394 404 423 413 397 354 345 324 338 362 378 364 342 341 319 318 293 264 287 302 248 225
217 289 365 420 478 495 414 342 367 425 484 480 497 504 463 390 344 355 353 346 339 346 335 331 321 309 262 286 314 257 213 157
339 426 485 524 566 525 481 444 461 506 537 545 505 448 437 450 433 368 346 319 309 290 294 285 279 252 229 231 200 179 148 135

GFSFLT1_con_3kmhel_054.txt.gz
Helicity
87 95 147 41 57 114 193 216 203 197 197 237 321 406 331 259 171 132 107 68 44 35 0 41 60 85 121 147 162 131 115 118
79 83 70 77 109 87 78 93 59 50 32 -12 89 77 116 202 143 2 -34 -23 -32 -34 -11 75 101 114 130 149 153 138 129 136
73 50 36 7 25 74 75 58 11 -23 -50 -63 20 22 -38 -49 -72 -109 -105 -70 -59 -38 -20 98 129 133 116 139 180 194 162 200
92 71 47 20 21 31 46 30 41 -48 -25 -29 -46 -51 -84 -161 -240 -193 -155 -86 -53 -33 -36 89 106 118 123 147 190 232 232 222
122 103 86 38 13 -15 11 17 -7 -85 -68 -95 -179 -185 -154 -159 -191 -163 -113 -57 -41 -21 42 105 124 123 123 155 189 244 273 253
189 109 100 37 42 23 -4 5 -10 -92 -148 -153 -174 -133 -126 -124 -123 -59 -44 -56 -33 20 70 121 150 188 142 170 201 254 270 269
178 155 100 59 40 42 6 10 -45 -102 -168 -131 -92 -77 -68 -86 -108 -90 -51 -48 -2 66 84 84 160 151 148 173 179 211 230 312
191 155 163 135 141 94 67 54 2 -31 -43 -29 -16 -21 -47 -63 -58 -49 5 11 95 142 175 187 261 36 112 162 205 235 310 386
271 233 198 169 207 172 146 134 86 75 72 35 33 15 8 -29 -55 9 36 61 119 185 193 200 146 126 160 193 225 302 358 416
247 235 214 208 191 246 235 201 153 135 145 87 50 31 31 44 42 67 154 150 122 197 261 201 158 173 209 257 307 346 356 376
250 257 240 271 296 264 268 253 218 149 150 149 91 46 3 23 44 86 120 159 176 137 208 222 172 219 300 301 341 340 364 345
261 270 249 235 292 300 296 252 199 144 199 185 188 106 48 122 93 176 209 214 255 114 217 222 216 259 317 326 343 359 346 339
162 228 291 251 267 320 363 376 347 207 144 290 386 214 236 282 303 79 192 284 250 245 190 188 218 270 290 325 334 323 355 393
115 120 154 176 234 295 379 450 466 437 300 274 275 280 415 432 186 246 208 277 303 266 205 205 232 275 299 301 324 368 309 365
184 177 131 122 150 230 288 409 451 417 355 362 265 353 366 323 379 319 224 238 270 219 189 223 278 318 337 345 367 347 288 233
93 153 208 198 163 182 188 262 333 409 402 336 269 242 248 249 289 380 309 263 226 239 293 319 333 339 335 367 341 333 339 271
181 162 250 309 287 294 241 225 205 255 245 206 266 307 297 313 372 394 361 314 302 331 361 385 388 346 320 333 331 315 314 259
201 187 235 380 414 410 383 314 294 250 275 332 328 363 401 404 439 425 401 356 390 397 392 364 344 318 288 299 303 315 306 281
166 189 295 424 505 558 535 505 437 379 409 437 439 499 483 482 469 415 384 370 357 352 355 366 366 331 325 319 368 350 330 305

GFSFLT1_con_3kmhel_060.txt.gz
Helicity
101 86 121 112 78 82 168 137 163 157 149 318 88 168 128 53 129 56 69 37 75 81 76 88 71 54 72 84 79 73 58 57
104 99 109 104 38 83 115 132 198 203 240 186 231 203 177 141 187 124 135 116 141 61 43 173 68 80 46 81 101 71 80 91
126 110 105 107 81 35 119 146 146 305 189 192 276 271 290 297 180 223 224 262 183 150 89 102 78 88 63 86 122 120 101 127
142 134 119 133 116 102 81 57 58 163 274 301 231 290 302 230 219 302 366 274 83 96 137 70 75 77 90 95 112 133 131 155
129 121 98 122 120 97 102 103 60 36 127 190 167 152 183 96 200 292 252 214 -12 67 28 29 47 83 98 74 118 160 191 166
178 144 106 104 124 102 66 79 99 66 78 47 -2 -41 -83 30 85 -7 72 38 -42 -3 -1 1 36 86 104 121 160 179 211 226
150 153 138 97 119 127 75 34 59 54 59 21 18 17 10 -17 12 19 -23 -94 -80 -40 -41 -8 20 -34 123 138 189 165 147 169
154 201 169 148 138 147 126 71 17 7 -9 -3 -36 -86 -67 -56 -52 -21 -61 -126 -145 -128 -125 -120 -98 -92 -53 135 134 168 204 143
125 177 188 169 161 143 146 130 71 45 8 -33 -52 -55 -83 -105 -155 -170 -184 -180 -245 -215 -176 -94 -36 -62 13 135 157 193 213 198
139 139 183 192 191 186 178 141 107 97 66 16 -26 -34 -37 -76 -84 -100 -133 -166 -166 -132 3 25 2 71 102 113 126 178 181 193
126 151 164 185 199 215 190 188 152 126 104 74 21 -17 -35 -58 -100 -113 -96 -88 -46 -14 2 43 54 21 27 132 160 194 178 197
126 149 162 173 202 235 225 207 195 169 152 120 110 96 88 69 23 -8 19 27 34 66 90 45 25 79 126 126 156 192 195 216
92 100 124 168 220 244 263 231 235 244 226 171 117 80 62 100 137 106 120 77 109 98 129 175 184 226 157 163 170 198 198 224
75 107 152 185 226 260 293 293 304 319 323 281 234 181 140 110 178 138 172 171 163 243 130 161 139 186 168 154 214 253 216 242
57 118 135 163 185 190 211 228 263 304 357 355 341 263 223 224 290 256 246 261 212 136 100 99 158 178 186 216 249 251 204 264
82 100 140 182 148 120 125 115 180 252 296 358 370 376 268 221 242 282 284 264 240 170 137 184 232 230 242 219 237 237 260 287
37 75 147 167 177 154 158 129 159 233 258 299 291 300 264 240 269 292 269 244 202 179 272 315 262 267 257 258 281 282 318 340
49 67 120 157 220 199 188 205 239 257 278 273 281 274 258 249 262 284 275 222 279 316 294 283 235 265 240 267 317 351 379 412
60 75 80 100 196 199 225 274 262 279 273 292 304 321 283 289 271 262 296 347 356 322 280 261 287 286 301 356 443 482 498 464